EHI
0 0 0 0 0 0 0 0 0 0 0 0 0 0 0 0 0 0 0 0 0 0 0 0 0 0 0 0 0 0 0 0 0 0 0 0 0 0
0 0 0 0 0 0 0 0 0 0 0 0 0 0 0 0 0 0 0 0 0 0 0 0 0 0 0 0 0 0 0 0 0 0 0 0 0 0
0 0 0 0 0 0 0 0 0 0 0 0 0 0 0 0 0 0 0 0 0 0 0 0 0 0 0 0 0 0 0 0 0 0 0 0 0 0
0 0 0 0 0 0 0 0 0 0 0 0 0 0 0 0 0 0 0 0 0 0 0 0 0 0 0 0 0 0 0 0 0 0 0 0 0 0
0 0 0 0 0 0 0 0 0 0 0 0 0 0 0 0 0 0 0 0 0 0 0 0 0 0 0 0 0 0 0 0 0 0 0 0 0 0
0 0 0 0 0 0 0 0 0 0 0 0 0 0 0 0 0 0 0 0 0 0 0 0 0 0 0 0 0 0 0 0 0 0 0 0 0 0
0 0 0 0 0 0 0 0 0 0 0 0 0 0 0 0 0 0 0 0 0 0 0 0 0 0 0 0 0 0 0 0 0 0 0 0 0 0
0 0 0 0 0 0 0 0 0 0 0 0 0 0 0 0 0 0 0 0 0 0 0 0 0 0 0 0 0 0 0 0 0 0 0 0 0 0
0 0 0 0 0 0 0 0 0 0 0 0 0 0 0 0 0 0 0 0 0 0 0 0 0 0 0 0 0 0 0 0 0 0 0 0 0 0
0 0 0 0 0 0 0 0 0 0 0 0 0 0 0 0 0 0 0 0 0 0 0 0 0 0 0 0 0 0 0 0 0 0 0 0 0 0
0 0 0 0 0 0 0 0 0 0 0 0 0 0 0 0 0 0 0 0 0 0 0 0 0 0 0 0 0 0 0 0 0 0 0 0 0 0
0 0 0 0 0 0 0 0 0 0 0 0 0 0 0 0 0 0 0 0 0 0 0 0 0 0 0 0 0 0 0 0 0 0 0 0 0 0
0 0 0 0 0 0 0 0 0 0 0 0 0 0 0 0 0 0 0 0 0 0 0 0 0 0 0 0 0 0 0 0 0 0 0 0 0 0
0 0 0 0 0 0 0 0 0 0 0 0 0 0 0 0 0 0 0 0 0 0 0 0 0 0 0 0 0 0 0 0 0 0 0 0 0 0
0 0 0 0 0 0 0 0 0 0 0 0 0 0 0 0 0 0 0 0 0 0 0 0 0 0 0 0 0 0 0 0 0 0 0 0 0 0
0 0 0 0 0 0 0 0 0 0 0 0 0 0 0 0 0 0 0 0 0 0 0 0 0 0 0 0 0 0 0 0 0 0 0 0 0 0
0 0 0 0 0 0 0 0 0 0 0 0 0 0 0 0 0 0 0 0 0 0 0 0 0 0 0 0 0 0 0 0 0 0 0 0 0 0
0 0 0 0 0 0 0 0 0 0 0 0 0 0 0 0 0 0 0 0 0 0 0 0 0 0 0 0 0 0 0 0 0 0 0 0 0 0
0 0 0 0 0 0 0 0 0 0 0 0 0 0 0 0 0 0 0 0 0 0 0 0 0 0 0 0 0 0 0 0 0 0 0 0 0 0
0 0 0 0 0 0 0 0 0 0 0 0 0 0 0 0 0 0 0 0 0 0 0 0 0 0 0 0 0 0 0 0 0 0 0 0 0 0
0 0 0 0 0 0 0 0 0 0 0 0 0 0 0 0 0 0 0 0 0 0 0 0 0 0 0 0 0 0 0 0 0 0 0 0 0 0
0 0 0 0 0 0 0 0 0 0 0 0 0 0 0 0 0 0 0 0 0 0 0 0 0 0 0 0 0 0 0 0 0 0 0 0 0 0
0 0 0 0 0 0 0 0 0 0 0 0 0 0 0 0 0 0 0 0 0 0 0 0 0 0 0 0 0 0 0 0 0 0 0 0 0 0
Wind_Speed
2 2 2 1 2 2 2 2 2 1 1 1 1 1 1 2 2 1 3 6 4 4 4 4 4 4 4 4 4 5 5 5 5 5 5 5 5 5
2 2 2 2 1 2 2 2 2 2 0 1 1 2 1 2 2 1 3 5 4 4 4 4 4 3 3 4 4 4 4 4 5 5 5 4 5 4
3 3 3 2 2 2 2 2 2 1 1 2 2 2 3 2 2 1 2 2 4 4 3 3 3 3 3 4 4 4 4 4 4 3 3 3 3 4
3 3 3 2 3 2 2 3 2 2 2 3 3 3 3 2 2 2 1 1 2 5 3 2 2 3 3 3 3 3 3 3 3 2 2 2 2 3
4 4 4 4 4 3 3 3 2 2 2 3 3 2 2 2 2 2 2 1 2 4 4 3 2 2 2 2 2 2 2 2 2 2 2 2 2 2
4 4 4 4 4 4 4 3 3 3 3 3 3 3 3 3 3 2 2 2 2 2 2 2 3 3 3 2 2 2 1 1 1 1 2 2 2 2
4 4 3 1 2 1 2 3 4 3 3 3 3 3 3 3 3 3 2 2 2 2 2 3 3 3 3 4 4 3 2 1 0 0 1 1 2 2
4 4 4 4 4 3 3 3 3 4 4 4 4 4 4 4 3 3 3 3 3 3 3 2 2 2 2 2 3 3 3 2 2 2 1 2 2 3
4 4 3 3 4 5 6 6 5 5 5 5 5 4 4 4 5 5 4 4 3 1 3 3 3 3 2 2 4 4 4 3 2 1 2 2 3 4
4 4 4 5 4 4 4 5 5 5 5 6 5 4 3 3 5 4 4 4 3 2 3 3 3 3 2 3 6 5 5 4 3 3 3 3 4 5
5 4 4 4 4 4 5 5 5 4 3 3 3 2 1 1 2 3 4 4 4 3 4 3 3 3 3 3 4 7 6 5 4 4 4 4 5 6
4 4 4 4 5 7 7 6 6 5 4 4 4 4 5 5 6 6 4 4 4 3 3 3 3 3 3 3 3 4 5 6 6 6 5 4 5 5
4 4 4 7 7 8 8 6 4 4 4 4 4 4 4 4 5 5 4 4 5 4 2 3 3 4 4 3 3 4 4 4 4 5 6 5 5 5
5 4 3 7 8 8 7 5 4 4 4 4 4 4 4 4 4 4 4 4 4 4 3 4 3 4 4 4 4 3 3 4 4 4 3 5 6 7
3 2 2 6 7 7 8 7 7 5 5 5 5 5 4 3 3 3 4 3 3 3 4 5 5 5 5 5 4 4 3 3 4 4 4 4 4 4
4 3 4 5 5 5 6 7 6 5 5 5 5 4 3 3 4 4 4 4 4 4 4 5 6 6 6 6 5 5 5 4 3 4 4 5 5 5
4 4 4 4 5 5 5 5 5 5 6 5 5 5 4 4 4 4 4 5 5 5 4 4 4 4 6 6 6 6 5 5 4 4 4 5 5 5
4 5 5 6 6 6 6 6 6 6 6 6 6 6 5 5 5 5 5 5 6 5 5 4 4 3 4 5 6 7 6 5 5 5 5 6 6 5
5 6 6 6 6 6 6 6 6 6 6 6 6 6 6 6 6 6 6 6 6 6 5 5 5 5 6 6 5 7 6 5 5 5 5 6 7 5
6 6 6 6 6 6 6 6 6 6 6 6 6 6 6 6 6 7 7 7 6 6 6 6 6 7 7 6 5 4 8 7 6 6 5 5 5 5
6 6 6 6 6 6 6 6 6 6 7 6 7 7 7 7 7 7 7 8 7 7 7 7 5 6 5 4 5 5 5 7 7 6 6 5 6 6
6 6 6 6 6 6 6 6 6 7 7 7 7 7 7 7 8 9 8 8 7 7 8 5 4 5 6 7 7 7 6 4 5 7 8 7 6 5
6 6 6 6 6 6 6 7 9 7 7 7 7 7 7 7 7 7 8 8 7 7 7 6 5 5 7 7 7 6 7 6 5 5 6 8 11 12
Wind_Direction
232 225 236 205 210 219 224 239 252 220 157 136 144 100 81 68 62 114 93 86 83 85 84 82 75 73 72 70 72 66 66 67 70 73 68 62 60 63
230 232 230 224 202 205 224 243 268 272 176 122 136 130 125 118 92 79 88 105 98 93 90 85 77 73 76 82 80 70 66 71 71 72 64 57 48 51
200 208 213 213 205 202 211 226 240 234 180 141 140 157 166 157 138 149 143 149 119 105 95 91 84 81 84 86 82 76 73 72 72 69 62 54 42 36
202 205 207 192 211 212 215 219 211 219 204 168 163 175 179 167 163 168 166 152 137 112 110 106 106 97 95 90 83 80 75 69 59 51 43 36 28 24
211 209 206 200 205 199 210 211 199 194 201 191 167 159 177 168 174 168 168 177 176 144 149 152 143 137 127 122 102 93 85 78 65 49 32 13 3 359
215 220 215 211 214 203 203 202 194 192 196 197 181 177 179 178 195 184 179 185 207 183 163 164 164 179 177 167 153 139 129 110 91 67 37 10 352 341
210 219 224 249 336 261 236 212 201 203 199 202 198 194 191 191 204 202 203 207 205 206 201 198 194 200 189 188 196 188 183 189 199 307 330 335 318 306
210 211 198 196 191 209 240 260 261 234 215 207 209 212 212 205 206 215 211 218 217 191 217 213 216 220 212 206 158 175 196 211 236 250 264 282 288 285
220 212 203 197 208 212 199 209 229 256 266 254 231 226 222 204 206 213 215 228 246 195 223 224 216 224 212 168 155 177 192 200 212 238 264 275 280 286
225 222 210 203 204 222 218 218 216 209 222 237 245 243 237 219 219 224 222 224 233 201 220 241 221 232 225 205 171 186 194 202 215 238 261 277 278 274
221 225 221 211 174 204 222 222 223 215 199 246 308 329 20 260 234 213 208 217 230 212 205 239 232 240 240 232 187 185 197 206 219 234 249 267 277 266
215 216 211 222 185 201 221 221 224 219 206 198 211 209 213 200 209 225 223 230 237 228 191 227 233 235 242 219 219 205 204 204 212 220 235 256 275 270
218 217 202 192 202 210 231 234 231 238 222 218 217 214 214 210 206 220 227 237 245 245 196 217 238 235 245 253 231 226 233 234 221 215 215 225 247 263
230 226 202 181 201 211 221 221 210 223 227 219 219 219 216 214 211 213 221 231 252 258 226 224 247 249 251 256 253 230 231 239 244 247 247 216 223 229
244 245 212 188 201 210 211 209 206 215 218 220 224 226 224 222 213 209 219 225 241 247 245 240 247 249 248 256 261 256 252 242 240 248 250 249 247 238
240 212 196 195 211 221 205 206 216 219 221 226 229 226 215 207 211 211 211 215 225 231 232 238 241 243 247 253 254 255 253 252 245 254 259 257 256 252
227 219 214 205 208 212 215 214 214 213 217 225 224 219 215 213 216 214 218 220 230 234 229 229 230 235 249 255 248 247 251 253 252 254 260 264 261 254
221 222 223 221 221 220 218 217 218 220 221 221 222 222 219 218 216 213 218 226 233 235 232 226 212 219 233 241 239 246 249 251 253 249 251 262 265 264
222 231 231 230 228 226 224 223 224 224 223 222 223 223 221 221 220 219 219 226 234 237 235 228 222 225 241 251 223 216 242 249 249 248 249 256 268 275
230 235 235 233 231 229 226 227 228 224 220 222 223 223 222 223 223 224 224 226 231 236 238 234 231 231 241 258 264 237 221 239 246 251 256 260 264 266
230 234 236 236 233 232 232 230 228 227 225 225 225 223 222 224 226 230 230 226 232 234 236 239 242 239 248 253 251 248 231 223 250 258 263 263 268 264
235 237 237 239 238 234 231 230 230 229 227 227 227 225 224 226 228 230 230 227 227 233 241 243 232 226 227 236 246 254 254 236 228 241 254 260 266 270
235 240 238 235 236 234 232 230 232 232 230 229 229 228 226 228 230 229 229 230 230 231 235 236 230 230 233 237 245 250 251 250 248 245 244 230 236 254